Jefferson, NC

12:49 AM EST on December 16, 2019 (GMT -0500)
Ashe County

Weather History for KGEV - October, 2019

Change the Weather History Date:

Thursday, October 31, 2019

  Actual Average Record
Temperature  
Mean Temperature 50 °F -  
Max Temperature 66 °F 60 °F 76 °F (1987)
Min Temperature 31 °F 36 °F 23 °F (1968)
Degree Days  
Heating Degree Days 16    
Moisture  
Dew Point 55 °F    
Average Humidity 94    
Maximum Humidity 100    
Minimum Humidity 72    
Precipitation  
Precipitation 0.52 in - - ()
Sea Level Pressure  
Sea Level Pressure 29.92 in    
Wind  
Wind Speed 10 mph ()    
Max Wind Speed 41 mph    
Max Gust Speed 58 mph    
Visibility 7.7 miles    
Events Rain    
Averages and records for this station are not official NWS values.
T = Trace of Precipitation, MM = Missing Value Source: Averaged Metar Reports

Daily Weather History Graph

Daily Weather History Graph

Search for Another Location

Airport or City:

Astronomy

Oct. 31, 2019 Rise Set
Actual Time 7:47 AM EDT 6:30 PM EDT
Civil Twilight 7:21 AM EDT 6:57 PM EDT
Nautical Twilight 6:50 AM EDT 7:27 PM EDT
Astronomical Twilight 6:20 AM EDT 7:57 PM EDT
Moon 11:29 AM EDT (10/31) 9:30 PM EDT (10/31)
Length of Visible Light 11h 35m
Length of Day
10h 42m
Waxing Crescent, 15% of the Moon is Illuminated
Oct 31
Waxing Crescent
Nov 4
First Quarter
Nov 12
Full
Nov 19
Last Quarter
Nov 26
New

Hourly Weather History & Observations

Time (EDT) Temp. Windchill Dew Point Humidity Pressure Visibility Wind Dir Wind Speed Gust Speed Precip Events Conditions
12:15 AM 59.0 °F - 59.0 °F 100% 30.06 in 2.0 mi South 4.6 mph - N/A Rain Rain
12:35 AM 59.2 °F - 59.2 °F 100% 30.06 in 10.0 mi SSE 8.1 mph - N/A   Drizzle
12:55 AM 59.4 °F - 59.4 °F 100% 30.06 in 4.0 mi SSE 5.8 mph - N/A   Overcast
1:15 AM 59.5 °F - 59.5 °F 100% 30.06 in 2.5 mi South 6.9 mph - N/A   Overcast
1:35 AM 59.9 °F - 59.9 °F 100% 30.05 in 7.0 mi South 5.8 mph - N/A   Overcast
1:55 AM 59.9 °F - 59.9 °F 100% 30.04 in 10.0 mi South 9.2 mph - N/A   Overcast
2:15 AM 60.1 °F - 60.1 °F 100% 30.03 in 10.0 mi South 6.9 mph - N/A   Overcast
2:35 AM 60.1 °F - 60.1 °F 100% 30.02 in 10.0 mi SSE 6.9 mph - N/A   Overcast
2:55 AM 60.3 °F - 60.3 °F 100% 30.02 in 7.0 mi South 5.8 mph - N/A   Overcast
3:15 AM 60.6 °F - 60.6 °F 100% 30.01 in 10.0 mi SSE 5.8 mph - N/A   Overcast
3:35 AM 60.8 °F - 60.8 °F 100% 30.01 in 5.0 mi South 5.8 mph - 0.01 in   Overcast
3:55 AM 60.8 °F - 60.8 °F 100% 30.00 in 10.0 mi South 4.6 mph - 0.01 in   Overcast
4:15 AM 60.8 °F - 60.8 °F 100% 29.99 in 10.0 mi SSE 5.8 mph - N/A Rain Rain
4:35 AM 60.8 °F - 60.8 °F 100% 29.98 in 10.0 mi SSE 8.1 mph - N/A   Drizzle
4:55 AM 61.0 °F - 61.0 °F 100% 29.99 in 4.0 mi SSE 5.8 mph - 0.02 in Rain Heavy Rain
5:15 AM 61.0 °F - 61.0 °F 100% 29.98 in 3.0 mi South 4.6 mph - 0.03 in Rain Light Rain
5:35 AM 61.3 °F - 61.3 °F 100% 29.98 in 4.0 mi South 5.8 mph - 0.03 in   Drizzle
5:55 AM 61.7 °F - 61.7 °F 100% 29.97 in 7.0 mi SSE 4.6 mph - 0.03 in   Light Drizzle
6:15 AM 61.7 °F - 61.7 °F 100% 29.97 in 10.0 mi South 6.9 mph - N/A Rain Rain
6:35 AM 61.7 °F - 61.7 °F 100% 29.97 in 10.0 mi South 5.8 mph - N/A Rain Rain
6:55 AM 61.7 °F - 61.7 °F 100% 29.97 in 10.0 mi SSE 5.8 mph - 0.01 in Rain Rain
7:15 AM 61.7 °F - 61.7 °F 100% 29.97 in 7.0 mi SSE 3.5 mph - 0.01 in Rain Rain
7:35 AM 62.1 °F - 62.1 °F 100% 29.96 in 7.0 mi SSE 6.9 mph - 0.03 in Rain Rain
7:55 AM 62.6 °F - 62.6 °F 100% 29.95 in 10.0 mi South 10.4 mph 16.1 mph 0.03 in   Overcast
8:15 AM 62.6 °F - 62.6 °F 100% 29.95 in 10.0 mi SSE 8.1 mph 18.4 mph N/A   Overcast
8:35 AM 62.6 °F - 62.6 °F 100% 29.95 in 5.0 mi SSE 6.9 mph 16.1 mph 0.01 in Rain Rain
8:55 AM 62.2 °F - 62.2 °F 100% 29.94 in 4.0 mi SSE 10.4 mph 17.3 mph 0.02 in Rain Rain
9:15 AM 62.2 °F - 62.2 °F 100% 29.94 in 5.0 mi SSE 10.4 mph 18.4 mph 0.01 in   Light Drizzle
9:35 AM 62.6 °F - 62.6 °F 100% 29.94 in 4.0 mi SSE 9.2 mph 17.3 mph 0.02 in Rain Rain
9:55 AM 63.0 °F - 63.0 °F 100% 29.95 in 10.0 mi South 13.8 mph 25.3 mph 0.02 in Rain Light Rain
10:35 AM 63.5 °F - 63.5 °F 100% 29.92 in 4.0 mi SSE 9.2 mph 20.7 mph N/A   Drizzle
10:55 AM 63.5 °F - 63.5 °F 100% 29.92 in 3.0 mi South 9.2 mph 19.6 mph 0.01 in   Heavy Drizzle
11:35 AM 64.0 °F - 64.0 °F 100% 29.89 in 4.0 mi South 8.1 mph 19.6 mph 0.01 in   Drizzle
11:55 AM 64.6 °F - 64.0 °F 98% 29.88 in 10.0 mi South 10.4 mph 19.6 mph 0.01 in   Light Drizzle
12:15 PM 64.4 °F - 64.4 °F 100% 29.87 in 4.0 mi SSE 6.9 mph - 0.01 in Rain Rain
12:35 PM 64.4 °F - 64.4 °F 100% 29.85 in 10.0 mi South 12.7 mph 25.3 mph 0.02 in   Light Drizzle
12:55 PM 64.8 °F - 63.9 °F 97% 29.84 in 10.0 mi South 10.4 mph 28.8 mph 0.02 in Rain Rain
1:15 PM 65.3 °F - 63.7 °F 94% 29.82 in 5.0 mi South 12.7 mph 29.9 mph N/A   Drizzle
1:35 PM 64.4 °F - 64.4 °F 100% 29.82 in 4.0 mi South 10.4 mph 18.4 mph 0.02 in Rain Rain
2:15 PM 64.6 °F - 64.0 °F 98% 29.78 in 4.0 mi South 12.7 mph 26.5 mph 0.05 in Rain Light Rain
2:35 PM 64.6 °F - 63.9 °F 98% 29.78 in 10.0 mi South 12.7 mph 23.0 mph 0.05 in Rain Light Rain
2:55 PM 64.4 °F - 63.9 °F 98% 29.77 in 7.0 mi South 13.8 mph 20.7 mph 0.06 in Rain Rain
3:15 PM 64.4 °F - 63.1 °F 96% 29.76 in 4.0 mi South 13.8 mph 24.2 mph 0.02 in Rain Light Rain
3:35 PM 66.0 °F - 62.6 °F 89% 29.77 in 10.0 mi South 11.5 mph 25.3 mph 0.02 in Rain Rain
3:55 PM 66.7 °F - 62.1 °F 85% 29.77 in 10.0 mi SSW 11.5 mph 35.7 mph 0.02 in   Light Drizzle
4:15 PM 65.7 °F - 62.2 °F 89% 29.77 in 3.0 mi SSW 13.8 mph 31.1 mph 0.03 in Rain Rain
4:35 PM 58.5 °F - 56.1 °F 92% 29.78 in 2.5 mi West 18.4 mph 23.0 mph 0.15 in Rain Rain
4:55 PM 56.3 °F - 54.5 °F 94% 29.77 in 5.0 mi West 21.9 mph 27.6 mph 0.22 in Rain Light Rain
5:15 PM 54.7 °F - 52.7 °F 93% 29.79 in 10.0 mi West 13.8 mph 19.6 mph 0.01 in Rain Light Rain
5:35 PM 53.6 °F - 51.6 °F 93% 29.79 in 10.0 mi West 16.1 mph 19.6 mph 0.01 in Rain Rain
5:55 PM 51.6 °F - 49.1 °F 91% 29.79 in 10.0 mi West 24.2 mph 36.8 mph 0.01 in Rain Light Rain
6:15 PM 50.0 °F - 47.1 °F 90% 29.81 in 10.0 mi West 20.7 mph 34.5 mph N/A Rain Light Rain
6:35 PM 49.3 °F - 45.7 °F 87% 29.80 in 10.0 mi West 33.4 mph 41.4 mph N/A   Overcast
6:55 PM 48.7 °F - 44.8 °F 86% 29.83 in 10.0 mi West 29.9 mph 42.6 mph N/A   Light Drizzle
7:15 PM 46.9 °F - 44.1 °F 90% 29.83 in 10.0 mi West 35.7 mph 48.3 mph N/A Rain Light Rain
7:35 PM 45.0 °F 34.1 °F 41.9 °F 89% 29.85 in 10.0 mi West 38.0 mph 47.2 mph 0.01 in   Mostly Cloudy
7:55 PM 43.7 °F 33.2 °F 39.6 °F 85% 29.89 in 10.0 mi West 32.2 mph 46.0 mph 0.01 in   Mostly Cloudy
8:15 PM 42.1 °F 30.1 °F 37.8 °F 85% 29.91 in 10.0 mi West 38.0 mph 52.9 mph N/A   Overcast
8:35 PM 40.5 °F 27.4 °F 33.6 °F 77% 29.92 in 10.0 mi West 41.4 mph 57.5 mph N/A   Overcast
8:55 PM 39.2 °F 27.8 °F 34.9 °F 84% 29.93 in 10.0 mi West 27.6 mph 49.5 mph N/A   Overcast
9:35 PM 36.9 °F 26.8 °F 28.8 °F 72% 29.96 in 10.0 mi WNW 18.4 mph 29.9 mph N/A   Mostly Cloudy
9:55 PM 35.4 °F 24.9 °F 28.4 °F 76% 29.95 in 10.0 mi West 18.4 mph 38.0 mph N/A   Scattered Clouds
10:15 PM 34.9 °F 22.7 °F 27.7 °F 75% 29.95 in 10.0 mi WNW 24.2 mph 36.8 mph N/A   Clear
10:35 PM 34.2 °F 20.3 °F 26.6 °F 74% 29.96 in 10.0 mi WNW 31.1 mph 44.9 mph N/A   Clear
10:55 PM 33.4 °F 23.5 °F 27.1 °F 78% 29.97 in 10.0 mi NW 15.0 mph 35.7 mph N/A   Mostly Cloudy
11:55 PM 31.8 °F 22.8 °F 27.5 °F 84% 30.00 in 10.0 mi WNW 11.5 mph 19.6 mph N/A   Overcast